Startseite
Über Mich
AHP4
Galerie
Sehschlangen
Tourenbuch
Bookmarks
Elektronik
Bewertung
Geschichten
[Tagesmessung] [Jahreswerte] [Information]

Messwerte vom 06.05.2022

Die letzten Messwerte von 23:58:48 Uhr:
KategorieMesswert
Temperatur [°C]10
Luftdruck [mBar]1006
Sonneneinstrahlung0
Wind [km/h]0 aus Nordwest
Niederschlag [l/m²]0
rel.Luftfeucht.83.9%
CO2 [ppm]724

Diagramme
Messwerte vom 06.05.2022
Tagesaggregation
KategorieMinimumMaximumSchnittSumme
Temperatur [°C]32714.0563
Luftdruck [mBar]100610101008.1292
Sonneneinstrahlung247127.8208
Wind [km/h]12
rF [%]28.394.864.29
Niederschlag [l/m²]0
CO2 [ppm]413750608.6
Einordnung alsVegetationstag
Sommertag

Messungen an benachbarten Tagen: Zur Jahresaggregation 2022
Tabelle aller Messwerte
UhrzeitTemperatur [°C]Luftdruck [mBar]SonneWind [km/h]RichtungRegen [l/m²]rF [%]CO2 [ppm]
00:01:47 7 1008 0 0 S 0 76 646
00:04:45 7 1008 0 0 S 0 76.6 646
00:07:47 7 1008 0 0 S 0 77.8 643
00:10:46 7 1008 0 0 S 0 78.2 639
00:13:47 7 1008 0 0 S 0 78.7 641
00:16:48 7 1008 0 0 S 0 79 638
00:19:44 7 1007 0 0 S 0 78.4 635
00:22:47 7 1008 0 0 S 0 78.6 630
00:25:46 7 1008 0 0 S 0 78.3 629
00:28:48 7 1008 0 0 S 0 78.7 624
00:31:46 6 1008 0 0 S 0 79.2 623
00:34:49 6 1008 0 0 S 0 79.2 627
00:37:47 6 1008 0 0 S 0 79 626
00:40:48 6 1009 0 0 S 0 79.3 639
00:43:47 6 1008 0 0 S 0 80.2 648
00:46:47 6 1008 0 0 S 0 81.4 644
00:49:46 6 1009 0 0 S 0 81.2 641
00:52:49 6 1009 0 0 S 0 82.9 646
00:55:45 6 1009 0 0 N 0 83 661
00:58:47 6 1008 0 0 N 0 83 676
01:01:46 6 1008 0 0 N 0 82.4 679
01:04:46 6 1008 0 0 N 0 83.6 679
01:07:46 6 1008 0 0 N 0 84.4 661
01:10:48 6 1009 0 0 N 0 83.6 662
01:13:49 6 1008 0 0 N 0 83.7 644
01:16:48 6 1009 0 0 N 0 83.8 638
01:19:46 6 1008 0 0 N 0 83.7 641
01:22:45 6 1008 0 0 N 0 83.9 649
01:25:46 6 1009 0 0 O 0 84.9 652
01:28:47 6 1009 0 0 SO 0 84.9 647
01:31:48 6 1008 0 0 N 0 85.4 644
01:34:44 6 1008 0 0 N 0 85.4 641
01:37:44 6 1008 0 0 N 0 85.5 651
01:40:47 6 1007 0 0 S 0 86.3 661
01:43:48 6 1008 0 0 NW 0 85.9 673
01:46:47 6 1009 0 0 O 0 86.5 656
01:49:48 6 1008 0 0 NW 0 86.9 647
01:52:46 6 1008 0 0 NW 0 86.9 646
01:55:48 6 1009 0 0 NW 0 86.8 647
01:58:46 6 1008 0 0 N 0 86.8 650
02:01:48 6 1008 0 0 SO 0 87.8 646
02:04:47 5 1009 0 0 NO 0 87.2 659
02:07:49 5 1008 0 0 NO 0 87.5 665
02:10:47 5 1008 0 0 O 0 87.5 672
02:13:47 5 1009 0 0 O 0 87.4 662
02:16:45 5 1008 0 0 O 0 87.4 664
02:19:47 5 1008 0 0 O 0 87.5 673
02:22:45 5 1009 0 0 O 0 87.4 673
02:25:47 5 1009 0 0 SO 0 87.4 679
02:28:47 5 1008 0 0 SO 0 88.1 682
02:31:49 5 1008 0 0 SO 0 88.4 692
02:34:48 5 1009 0 0 N 0 89.3 688
02:37:47 5 1008 0 0 N 0 90.1 691
02:40:48 5 1008 0 0 O 0 90.2 697
02:43:47 5 1008 0 0 O 0 90.2 693
02:46:46 5 1008 0 0 O 0 89.8 679
02:49:49 5 1009 0 0 NO 0 89.6 676
02:52:46 5 1008 0 0 O 0 89.5 676
02:55:46 5 1009 0 0 O 0 89.4 671
02:58:48 5 1008 0 0 O 0 89.3 667
03:01:47 5 1008 0 0 O 0 89.5 677
03:04:46 5 1009 0 0 O 0 89.5 679
03:07:46 4 1008 0 0 O 0 89.8 685
03:10:45 4 1009 0 0 O 0 90 685
03:13:49 4 1009 0 0 NW 0 89.8 685
03:16:46 5 1009 0 0 NW 0 90.7 676
03:19:49 5 1009 0 0 NO 0 91.5 679
03:22:48 5 1008 0 0 NO 0 91.3 679
03:25:48 5 1009 0 0 NO 0 91.3 682
03:28:46 5 1008 0 0 NO 0 91.3 685
03:31:46 4 1009 0 0 NO 0 91.1 688
03:34:48 4 1009 0 0 SO 0 90.8 680
03:37:48 4 1009 0 0 SO 0 90.5 682
03:40:47 4 1009 0 0 SO 0 90.6 682
03:43:47 4 1009 0 0 SO 0 90.5 682
03:46:49 4 1009 0 0 SO 0 90.8 673
03:49:45 4 1009 0 0 NO 0 91.2 661
03:52:47 4 1009 0 0 NO 0 91.4 667
03:55:47 4 1009 0 0 NO 0 91.1 671
03:58:46 4 1009 0 0 NO 0 91.3 682
04:01:46 4 1009 0 0 NO 0 91.3 691
04:04:47 4 1009 0 0 NO 0 91.3 703
04:07:49 4 1009 0 0 NO 0 91.4 697
04:10:46 4 1009 0 0 NO 0 91.9 694
04:13:46 4 1009 0 0 NO 0 91.5 693
04:16:47 4 1009 0 0 NO 0 91.4 702
04:19:46 4 1009 0 0 NO 0 91.6 705
04:22:48 4 1009 0 0 NO 0 91.8 702
04:25:50 4 1009 0 0 NO 0 91.9 694
04:28:48 4 1009 0 0 NO 0 91.9 702
04:31:46 4 1009 0 0 NO 0 92 712
04:34:45 4 1008 0 0 N 0 92.6 700
04:37:46 4 1009 0 0 N 0 92.9 695
04:40:44 4 1009 0 0 N 0 92.9 691
04:43:48 4 1009 0 0 N 0 92.7 694
04:46:46 3 1008 0 0 SO 0 92.6 688
04:49:47 3 1009 0 0 SO 0 92.5 689
04:52:47 3 1009 0 0 SO 0 92.7 696
04:55:47 3 1009 0 0 SO 0 92.8 702
04:58:49 3 1009 0 0 SO 0 92.9 706
05:01:49 3 1009 0 0 SO 0 92.7 695
05:04:46 3 1009 0 0 SO 0 92.6 700
05:07:49 3 1009 0 0 SO 0 92.8 703
05:10:48 3 1008 4 0 SO 0 92.8 699
05:13:47 3 1009 6 0 SO 0 92.8 697
05:16:50 3 1009 10 0 SO 0 92.9 691
05:19:49 3 1008 14 0 SO 0 93.2 688
05:22:48 3 1009 20 0 SO 0 93.6 691
05:25:50 3 1009 28 0 SO 0 93.8 691
05:28:48 3 1009 37 0 SO 0 93.9 693
05:31:49 3 1009 46 0 SO 0 94.3 696
05:34:47 3 1009 57 0 SO 0 94.5 703
05:37:50 3 1008 68 0 SO 0 94.5 702
05:40:47 3 1009 79 0 SO 0 94.3 703
05:43:49 3 1009 89 0 SO 0 94.2 700
05:46:48 3 1009 99 0 SO 0 94.1 706
05:49:50 3 1008 108 0 SO 0 94 712
05:52:49 3 1009 116 0 SO 0 94.2 715
05:55:50 3 1009 123 0 SO 0 94.3 718
05:58:50 3 1009 130 0 SO 0 94.3 712
06:01:49 3 1009 136 0 SO 0 94.3 709
06:04:47 3 1009 141 0 SO 0 94.3 705
06:07:47 3 1009 146 0 SO 0 94.3 705
06:10:49 3 1009 150 0 SO 0 94.3 706
06:13:50 3 1009 154 0 SO 0 94.2 702
06:16:47 3 1009 157 0 SO 0 94.2 699
06:19:50 3 1009 160 0 SO 0 94.2 706
06:22:47 3 1009 162 0 SO 0 94.3 713
06:25:49 3 1009 165 0 SO 0 94.3 702
06:28:47 3 1009 167 0 SO 0 94.3 711
06:31:47 4 1009 169 0 S 0 94.5 717
06:34:48 4 1009 171 0 SO 0 94.5 718
06:37:50 4 1009 173 0 SO 0 94.7 721
06:40:48 4 1009 175 0 SO 0 94.8 715
06:43:48 5 1010 176 0 SO 0 94.8 710
06:46:48 6 1009 178 0 SO 0 94.1 710
06:49:46 6 1009 179 0 N 0 93.5 711
06:52:47 7 1010 180 0 N 0 93.5 688
06:55:50 9 1009 181 0 N 0 90.5 682
06:58:47 10 1009 181 0 N 0 87.9 699
07:01:47 11 1010 182 0 N 0 84 720
07:04:49 12 1009 182 0 N 0 82.9 725
07:07:47 13 1009 183 0 N 0 80.2 715
07:10:49 13 1009 182 0 NO 0 77.9 697
07:13:48 14 1009 182 0 NO 0 76.2 700
07:16:47 15 1009 183 0 NO 0 73.5 714
07:19:49 15 1009 183 0 NO 0 72.6 729
07:22:47 15 1009 184 0 NO 0 72 726
07:25:50 16 1010 184 0 NO 0 67.3 727
07:28:47 15 1009 184 0 N 0 66.7 728
07:31:48 16 1010 185 0 N 0 67.6 727
07:34:47 16 1010 185 0 N 0 66.9 732
07:37:48 17 1009 185 0 N 0 66.1 741
07:40:48 16 1009 185 0 N 0 64.6 741
07:43:49 14 1009 185 0 NW 0 63.4 728
07:46:49 13 1010 186 0 NW 0 66.6 732
07:49:47 12 1009 186 0 S 0 68.3 739
07:52:49 11 1009 186 0 S 0 72 750
07:55:46 10 1010 185 0 S 0 72.2 743
07:58:48 10 1009 186 0 S 0 73.7 734
08:01:47 10 1010 187 1 S 0 74.8 733
08:04:48 10 1009 187 0 W 0 76 731
08:07:47 10 1009 187 0 SW 0 76.9 726
08:10:50 10 1010 188 0 W 0 77.9 721
08:13:47 10 1010 188 0 SO 0 78.3 717
08:16:48 10 1009 188 0 SW 0 79 718
08:19:47 10 1009 188 0 NO 0 79.1 724
08:22:49 10 1009 189 0 SO 0 79.3 719
08:25:49 10 1010 189 2 W 0 79.9 719
08:28:48 10 1009 189 6 W 0 80.1 709
08:31:47 10 1009 189 3 W 0 80.1 708
08:34:49 10 1009 189 2 NW 0 80.4 705
08:37:49 11 1010 189 0 S 0 80.5 705
08:40:50 11 1010 190 2 W 0 80.4 697
08:43:49 11 1009 190 2 NW 0 80.6 699
08:46:48 11 1010 190 0 SW 0 80.6 705
08:49:48 11 1010 190 0 S 0 80.3 701
08:52:49 11 1010 190 1 SW 0 80.2 694
08:55:50 11 1010 191 2 NW 0 80.2 692
08:58:48 11 1010 191 1 N 0 79.9 694
09:01:47 12 1010 191 4 W 0 79.3 683
09:04:47 12 1010 192 0 NW 0 78.8 685
09:07:50 12 1010 192 4 SW 0 78.1 679
09:10:47 12 1010 192 2 W 0 77.6 679
09:13:50 12 1010 193 1 NW 0 77.2 682
09:16:49 12 1010 193 2 NW 0 76.5 682
09:19:48 12 1010 194 1 W 0 76 679
09:22:46 12 1010 194 0 S 0 75.4 667
09:25:49 13 1010 195 1 NW 0 75.6 670
09:28:51 13 1009 196 4 NW 0 75.7 667
09:31:50 13 1010 197 0 SO 0 74.6 664
09:34:48 13 1010 197 3 W 0 74.9 656
09:37:48 13 1010 198 3 SW 0 75.3 656
09:40:47 13 1010 199 1 NW 0 75.2 653
09:43:49 13 1010 200 3 NW 0 75.1 658
09:46:46 14 1010 201 0 S 0 74.3 661
09:49:50 14 1010 201 1 SO 0 73.7 655
09:52:51 14 1010 202 3 NW 0 73.4 654
09:55:48 14 1010 202 1 SW 0 73.2 661
09:58:48 14 1009 202 0 SW 0 72.6 659
10:01:49 14 1010 202 2 SO 0 71.2 648
10:04:49 14 1009 202 1 SW 0 70.3 644
10:07:48 14 1010 202 2 S 0 70.6 638
10:10:52 15 1009 202 2 SO 0 70.3 648
10:13:48 15 1009 202 5 W 0 69.9 644
10:16:49 15 1009 202 2 S 0 69.7 633
10:19:49 15 1010 203 1 N 0 66.6 630
10:22:49 15 1010 203 0 S 0 66.9 641
10:25:49 15 1010 203 2 SW 0 67.3 645
10:28:46 15 1010 203 5 SW 0 65.9 633
10:31:47 15 1009 203 5 S 0 64.1 634
10:34:47 16 1010 204 1 W 0 65.4 630
10:37:49 16 1009 204 5 SW 0 66.1 628
10:40:48 16 1009 204 2 S 0 64.5 626
10:43:48 16 1009 204 4 NW 0 63.3 624
10:46:47 16 1010 204 1 S 0 62.7 629
10:49:47 16 1009 204 4 S 0 62.3 623
10:52:46 16 1010 205 5 S 0 61.3 618
10:55:49 16 1010 205 2 SO 0 59.6 614
10:58:48 16 1010 205 10 W 0 61.4 612
11:01:48 17 1010 205 4 NW 0 59.6 615
11:04:48 16 1010 205 2 W 0 58.2 615
11:07:48 16 1010 205 1 NO 0 59.6 612
11:10:47 17 1009 206 2 S 0 59.8 609
11:13:49 17 1010 207 4 S 0 59.6 603
11:16:46 17 1010 207 1 S 0 58.6 609
11:19:32 16 1010 207 5 SO 0 51.2 612
11:22:49 18 1010 208 2 S 0 55.4 609
11:25:49 18 1010 208 2 S 0 55.8 606
11:28:48 18 1010 208 2 W 0 56.2 605
11:31:46 18 1010 208 1 S 0 56.1 606
11:34:49 18 1010 209 6 SW 0 55.2 603
11:37:46 18 1010 210 3 S 0 55.2 600
11:40:48 19 1009 211 4 O 0 55.2 595
11:43:49 19 1010 211 1 NW 0 53.8 594
11:46:46 18 1009 213 5 0 52.6 594
11:49:47 18 1009 215 1 NO 0 51.7 594
11:52:49 19 1009 216 4 NO 0 53.6 594
11:55:46 20 1009 218 3 SO 0 54 594
11:58:50 20 1009 217 6 NW 0 51.5 592
12:01:51 20 1009 215 7 N 0 49.1 594
12:04:48 19 1010 214 0 NW 0 48.8 585
12:07:34 19 1010 216 0 NW 0 40 586
12:10:47 19 1010 219 1 NO 0 51.3 579
12:13:53 19 1009 221 1 NW 0 51.2 585
12:16:49 19 1009 223 2 0 51.5 585
12:19:51 20 1009 227 2 SO 0 52.6 583
12:22:48 21 1009 227 2 S 0 47 580
12:25:47 21 1009 225 6 W 0 47 582
12:28:50 22 1009 222 2 SO 0 46.6 576
12:31:47 22 1009 222 4 W 0 47.1 574
12:34:48 21 1009 223 5 NW 0 45.3 568
12:37:51 20 1009 226 12 NW 0 45.9 573
12:40:48 19 1009 227 4 N 0 46.2 580
12:43:48 20 1009 229 10 W 0 47.8 576
12:46:48 21 1009 226 2 N 0 47.9 573
12:49:52 21 1009 223 3 NW 0 45 566
12:52:49 20 1010 223 4 NW 0 44.5 567
12:55:50 20 1010 224 1 NW 0 45.2 561
12:58:49 20 1009 225 0 SO 0 46.9 556
13:01:48 20 1009 226 3 N 0 47.4 553
13:04:48 20 1009 224 8 NW 0 47 550
13:07:48 20 1009 219 8 NW 0 46.4 551
13:10:50 20 1009 214 8 NW 0 46.6 550
13:13:47 20 1009 210 5 NW 0 47.2 553
13:16:47 20 1009 210 2 SO 0 48.2 555
13:19:50 20 1010 213 0 SW 0 48.4 551
13:22:49 20 1009 216 2 W 0 48.3 547
13:25:47 19 1009 219 5 S 0 46.3 544
13:28:52 20 1009 222 0 NO 0 45.9 545
13:31:52 20 1009 225 2 S 0 46 548
13:34:48 21 1009 227 1 SO 0 45.8 545
13:37:50 21 1009 229 2 NW 0 45.9 547
13:40:47 21 1009 230 2 SW 0 45.4 547
13:43:52 21 1009 231 4 W 0 46.8 545
13:46:49 21 1009 232 6 NW 0 47.7 543
13:49:48 21 1009 231 3 NW 0 47.4 545
13:52:49 21 1009 232 1 S 0 46.3 542
13:55:47 21 1009 234 2 N 0 46.5 545
13:58:51 22 1009 232 1 NW 0 45.5 545
14:01:48 23 1009 232 4 S 0 41.7 542
14:04:49 23 1009 235 7 SW 0 40.8 539
14:07:50 24 1009 236 0 S 0 36.6 533
14:10:49 24 1009 239 1 O 0 36.1 536
14:13:49 24 1009 235 7 W 0 35.6 536
14:16:47 24 1009 234 7 W 0 34.6 538
14:19:47 24 1009 233 3 S 0 34.6 536
14:22:48 23 1009 234 0 SO 0 34.7 533
14:25:48 23 1009 234 2 S 0 37 538
14:28:49 23 1009 233 2 W 0 38 538
14:31:49 23 1009 233 1 NW 0 39.5 536
14:34:49 23 1008 233 0 W 0 39.9 529
14:37:49 23 1008 233 5 W 0 40.8 527
14:40:53 22 1009 233 3 NW 0 40.6 528
14:43:48 22 1009 233 1 SW 0 40.3 529
14:46:47 22 1009 235 0 O 0 40.2 527
14:49:46 22 1009 237 0 W 0 41.5 522
14:52:50 23 1009 240 2 SW 0 38.7 526
14:55:49 22 1008 238 4 NW 0 38.4 526
14:58:47 22 1008 245 1 SW 0 39.2 530
15:01:47 23 1008 245 4 N 0 37.5 529
15:04:50 23 1009 245 0 NW 0 36.3 530
15:07:32 22 1008 245 6 NW 0 40 547
15:10:46 25 1009 242 5 S 0 33 547
15:13:46 25 1008 245 2 S 0 32.7 541
15:16:48 25 1008 245 1 S 0 33.3 547
15:19:49 26 1008 245 9 NW 0 33.7 545
15:22:50 25 1008 246 8 W 0 32.8 545
15:25:51 25 1008 246 4 NW 0 33.2 539
15:28:49 25 1007 245 4 SO 0 33.1 538
15:31:47 26 1008 246 6 O 0 31.6 537
15:34:48 26 1008 239 4 SO 0 29.9 536
15:37:47 26 1007 239 1 S 0 30.5 538
15:40:49 25 1008 238 4 W 0 33 539
15:43:48 25 1008 241 1 S 0 33.9 538
15:46:50 25 1008 243 1 SW 0 34.3 530
15:49:48 26 1008 239 0 S 0 33.9 539
15:52:51 26 1007 236 3 SO 0 34 538
15:55:49 26 1007 235 6 W 0 34.3 533
15:58:46 26 1007 244 0 O 0 33.4 531
16:01:49 26 1009 246 1 SW 0 34.4 526
16:04:50 26 1007 247 5 O 0 31.6 527
16:07:48 26 1007 247 7 SW 0 30.7 530
16:10:49 26 1007 246 2 NW 0 32.5 526
16:13:47 27 1007 247 8 0 29.3 525
16:16:50 26 1007 247 1 SO 0 29.8 524
16:19:49 26 1007 247 3 NW 0 30.7 524
16:22:49 26 1007 247 0 S 0 30 521
16:25:48 26 1007 247 7 S 0 30.2 512
16:28:48 27 1007 247 4 SW 0 29.7 507
16:31:48 27 1007 246 5 S 0 29.3 512
16:34:47 27 1007 247 3 W 0 29.3 511
16:37:51 27 1008 247 8 S 0 28.3 509
16:40:50 27 1008 247 6 SO 0 28.3 510
16:43:47 27 1007 247 0 O 0 29.2 503
16:46:52 27 1007 234 0 NW 0 29.2 506
16:49:48 26 1007 227 3 S 0 29.4 509
16:52:45 25 1007 231 2 S 0 30.3 514
16:55:49 24 1007 246 4 S 0 30.8 515
16:58:50 23 1008 227 7 SW 0 31.4 515
17:01:48 23 1007 227 1 SW 0 32.1 513
17:04:49 22 1006 228 2 S 0 33.5 515
17:07:47 22 1007 227 0 W 0 34 513
17:10:47 22 1007 227 1 S 0 34.3 517
17:13:47 22 1006 232 0 O 0 35 515
17:16:48 22 1007 236 0 NW 0 35.9 515
17:19:47 23 1008 243 2 SO 0 36 515
17:22:48 23 1007 234 1 SO 0 36.2 517
17:25:48 23 1007 236 3 S 0 33.2 515
17:28:48 23 1007 238 1 S 0 33.6 517
17:31:36 22 1006 247 2 SW 0 40 512
17:34:47 25 1006 247 2 SO 0 33 515
17:37:49 26 1006 247 0 S 0 30.6 509
17:40:50 26 1006 246 0 NW 0 30.4 509
17:43:49 26 1007 241 5 SW 0 30.2 506
17:46:48 25 1006 236 3 W 0 29.2 509
17:49:46 24 1006 235 3 S 0 29.5 509
17:52:46 23 1007 236 0 S 0 30.3 515
17:55:48 23 1007 239 2 SO 0 32.9 509
17:58:48 23 1007 239 3 SW 0 33.7 509
18:01:51 23 1007 246 0 SO 0 33.3 512
18:04:48 23 1007 234 1 NW 0 34.8 515
18:07:49 23 1007 232 0 S 0 35.5 518
18:10:50 22 1006 240 0 SW 0 36.3 515
18:13:49 22 1007 225 0 SW 0 36.9 509
18:16:50 22 1007 223 2 NW 0 37.7 509
18:19:50 21 1006 222 1 S 0 37.5 509
18:22:50 21 1006 221 3 SW 0 38.4 515
18:25:48 21 1006 222 0 O 0 39.5 518
18:28:49 21 1007 222 0 SW 0 40 512
18:31:49 21 1007 221 0 SW 0 40.3 515
18:34:49 21 1006 219 0 S 0 40.7 518
18:37:49 21 1007 219 1 SO 0 40.9 514
18:40:47 20 1007 220 0 O 0 41.1 509
18:43:48 20 1007 180 0 S 0 40.9 506
18:46:48 20 1006 180 1 W 0 40.6 503
18:49:49 20 1006 178 0 SO 0 41.2 503
18:52:48 20 1008 172 0 SO 0 41.5 512
18:55:48 20 1006 208 0 S 0 41.2 507
18:58:49 20 1007 208 0 S 0 41 509
19:01:47 20 1006 210 0 S 0 40.9 494
19:04:48 20 1006 209 1 S 0 40.7 497
19:07:48 20 1006 205 0 W 0 40.3 500
19:10:49 20 1006 200 0 W 0 40.6 509
19:13:46 20 1007 194 0 W 0 41 521
19:16:49 19 1006 189 0 S 0 41.4 524
19:19:47 19 1006 186 0 S 0 41.5 529
19:22:47 19 1006 186 0 SO 0 41.6 524
19:25:48 19 1006 143 0 S 0 41.9 521
19:28:47 19 1006 139 0 S 0 42.2 491
19:31:48 19 1006 133 0 S 0 42.1 465
19:34:49 19 1006 134 1 S 0 42.2 465
19:37:50 19 1006 133 0 SO 0 43 462
19:40:50 19 1006 133 0 SO 0 43.2 460
19:43:47 19 1007 132 0 SO 0 44 445
19:46:47 18 1006 130 1 S 0 44.7 427
19:49:47 18 1006 127 3 S 0 44.2 418
19:52:47 18 1006 121 2 S 0 44.2 433
19:55:45 18 1007 118 0 S 0 44.1 444
19:58:47 18 1006 115 0 SO 0 44.4 447
20:01:51 18 1006 111 0 SO 0 44.9 436
20:04:47 18 1006 112 0 SO 0 45.4 425
20:07:48 18 1006 110 0 SO 0 45.6 413
20:10:49 18 1007 151 0 S 0 46.3 421
20:13:50 17 1007 142 0 W 0 47 430
20:16:51 17 1006 134 0 O 0 47.2 454
20:19:50 17 1006 127 0 O 0 47.8 447
20:22:48 17 1006 120 0 O 0 48.2 445
20:25:48 17 1006 112 0 O 0 48.2 444
20:28:47 17 1006 104 0 O 0 48.7 451
20:31:48 17 1007 96 0 O 0 49.1 463
20:34:47 17 1006 85 0 O 0 49.3 469
20:37:45 17 1006 75 0 O 0 49.3 468
20:40:46 16 1006 67 0 S 0 49.5 477
20:43:48 16 1007 60 1 S 0 50 467
20:46:49 16 1007 53 0 S 0 50.5 492
20:49:46 16 1006 45 0 S 0 51 495
20:52:47 16 1006 37 1 S 0 51.2 495
20:55:49 16 1006 29 1 S 0 51.5 490
20:58:46 16 1006 22 0 S 0 51.7 500
21:01:49 16 1006 16 0 S 0 52.1 504
21:04:46 16 1007 12 0 S 0 52.6 504
21:07:47 16 1006 9 0 S 0 53 510
21:10:49 16 1006 6 0 S 0 56 516
21:13:48 16 1007 4 0 NW 0 56.2 521
21:16:47 16 1007 3 0 NW 0 57.4 525
21:19:46 15 1007 0 0 NW 0 58 527
21:22:49 15 1006 0 0 NW 0 58.3 536
21:25:49 15 1006 0 0 NW 0 59 539
21:28:46 15 1007 0 0 NW 0 59.7 541
21:31:48 15 1006 0 0 NW 0 60.4 540
21:34:46 15 1007 0 0 NW 0 60.6 550
21:37:47 15 1006 0 0 NW 0 61.7 556
21:40:47 15 1006 0 0 NW 0 62.1 560
21:43:48 15 1007 0 0 NW 0 62.5 562
21:46:48 14 1007 0 0 NW 0 62.3 554
21:49:48 14 1006 0 0 NW 0 61.9 559
21:52:46 14 1006 0 0 NW 0 62 562
21:55:48 14 1006 0 0 NW 0 65.1 559
21:58:48 14 1007 0 0 NW 0 65.4 559
22:01:50 14 1006 0 0 NW 0 65.7 560
22:04:48 14 1007 0 0 NW 0 66.6 567
22:07:50 14 1006 0 0 NW 0 69.1 571
22:10:48 14 1007 0 0 NW 0 69.2 575
22:13:51 14 1006 0 0 NW 0 70.4 571
22:16:48 13 1006 0 0 NW 0 70.6 568
22:19:47 13 1006 0 0 NW 0 70.8 577
22:22:48 13 1006 0 0 NW 0 70.5 577
22:25:48 13 1006 0 0 NW 0 71 582
22:28:50 13 1006 0 0 NW 0 71.3 577
22:31:48 13 1006 0 0 NW 0 71.3 585
22:34:48 13 1006 0 0 NW 0 71.8 588
22:37:50 13 1006 0 0 NW 0 72.8 598
22:40:49 13 1006 0 0 NW 0 73.3 609
22:43:49 13 1006 0 0 NW 0 74.1 618
22:46:49 13 1006 0 0 NW 0 74.9 631
22:49:55 13 1007 0 0 NW 0 75.8 639
22:52:49 13 1006 0 0 NW 0 75.3 656
22:55:50 12 1006 0 0 NW 0 74.8 661
22:58:48 12 1007 0 0 NW 0 74.8 677
23:01:48 12 1007 0 0 NW 0 75.8 682
23:04:48 12 1006 0 0 NW 0 76.8 672
23:07:48 12 1006 0 0 NW 0 77.7 677
23:10:49 12 1006 0 0 NW 0 78.3 682
23:13:48 11 1006 0 0 NW 0 79 682
23:16:47 11 1007 0 0 NW 0 79.1 679
23:19:46 11 1006 0 0 NW 0 79.2 692
23:22:49 11 1007 0 0 NW 0 80 697
23:25:48 11 1006 0 0 NW 0 80.8 702
23:28:49 11 1007 0 0 NW 0 81.2 700
23:31:48 11 1006 0 0 NW 0 81.1 703
23:34:48 11 1006 0 0 NW 0 81.3 702
23:37:46 11 1006 0 0 NW 0 82 704
23:40:51 11 1006 0 0 NW 0 82.4 709
23:43:49 10 1007 0 0 NW 0 82.7 721
23:46:50 10 1006 0 0 NW 0 82.3 725
23:49:49 10 1006 0 0 NW 0 82.7 723
23:52:46 10 1006 0 0 NW 0 83.4 718
23:55:48 10 1006 0 0 NW 0 83.9 718
23:58:48 10 1006 0 0 NW 0 83.9 724

Letzte Änderung : 22-Jul-2022
Copyright Jens Köhler, Wolfsburg, Obere Dorfstraße 10d